Probability
0 0 0 0 0 0 0 0 0 0 0 0 0 0 0 0 0 0 0 0 0 0 0 0 0 0 0 0 0 0 0 0 0 0 0 0 0 0 0 0 0 0 0
0 0 0 0 0 0 0 0 0 0 0 0 0 0 0 0 0 0 0 0 0 0 0 0 0 0 0 0 0 0 0 0 0 0 0 0 0 0 0 0 0 0 0
0 0 0 0 0 0 0 0 0 0 0 0 0 0 0 0 0 0 0 0 0 0 0 0 0 0 0 0 0 0 0 0 0 0 0 0 0 0 0 0 0 0 0
0 0 0 0 0 0 0 0 0 0 0 0 0 0 0 0 0 0 0 0 0 0 0 0 0 0 0 0 0 0 0 0 0 0 0 0 0 0 0 0 0 0 0
0 0 0 0 0 0 0 0 0 0 0 0 0 0 0 0 0 0 0 0 0 0 0 0 0 0 0 0 0 0 0 0 0 0 0 0 0 0 0 0 0 0 0
0 0 0 0 0 0 0 0 0 0 0 0 0 0 0 0 0 0 0 0 0 0 0 0 0 0 0 0 0 0 0 0 0 0 0 0 0 0 0 0 0 0 0
0 0 0 0 0 0 0 0 0 0 0 0 0 0 0 0 0 0 0 0 0 0 0 0 0 0 0 0 0 0 0 0 0 0 0 0 0 0 0 0 0 0 0
0 0 0 0 0 0 0 0 0 0 0 0 0 0 0 0 0 0 0 0 0 0 0 0 0 0 0 0 0 0 0 0 0 0 0 0 0 0 0 0 0 0 0
0 0 0 0 0 0 0 0 0 0 0 0 0 0 0 0 0 0 0 0 0 0 0 0 0 0 0 0 0 0 0 0 0 0 0 0 0 0 0 0 0 0 0
0 0 0 0 0 0 0 0 0 0 0 0 0 0 0 0 0 0 0 0 0 0 0 0 0 0 0 0 0 0 0 0 0 0 0 0 0 0 0 0 0 0 0
0 0 0 0 0 0 0 0 0 0 0 0 0 0 0 0 0 0 0 0 0 0 0 0 0 0 0 0 0 0 0 0 0 0 0 0 0 0 0 0 0 0 0
0 0 0 0 0 0 0 0 0 0 0 0 0 0 0 0 0 0 0 0 0 0 0 0 0 0 0 0 0 0 0 0 0 0 0 0 0 0 0 0 0 0 0
0 0 0 0 0 0 0 0 0 0 0 0 0 0 0 0 0 0 0 0 0 0 0 0 0 0 0 0 0 0 0 0 0 0 0 0 0 0 0 0 0 0 0
0 0 0 0 0 0 0 0 0 0 0 0 0 0 0 0 0 0 0 0 0 0 0 0 0 0 0 0 0 0 0 0 0 0 0 0 0 0 0 0 0 0 0
0 0 0 0 0 0 0 0 0 0 0 0 0 0 0 0 0 0 0 0 0 0 0 0 0 0 0 0 0 0 0 0 0 0 0 0 0 0 0 0 0 0 0
0 0 0 0 0 0 0 0 0 0 0 0 0 0 0 0 0 0 0 0 0 0 0 0 0 0 0 0 0 0 0 0 0 0 0 0 0 0 0 0 0 0 0
0 0 0 0 0 0 0 0 0 0 0 0 0 0 0 0 0 0 0 0 0 0 0 0 0 0 0 0 0 0 0 0 0 0 0 0 0 0 0 0 0 0 0
0 0 0 0 0 0 0 0 0 0 0 0 0 0 0 0 0 0 0 0 0 0 0 0 0 0 0 0 0 0 0 0 0 0 0 0 0 0 0 0 0 0 0
0 0 0 0 0 0 0 0 0 0 0 0 0 0 0 0 0 0 0 0 0 0 0 0 0 0 0 0 0 0 0 0 0 0 0 0 0 0 0 0 0 0 0
0 0 0 0 0 0 0 0 0 0 0 0 0 0 0 0 0 0 0 0 0 0 0 0 0 0 0 0 0 0 0 0 0 0 0 0 0 0 0 0 0 0 0
0 0 0 0 0 0 0 0 0 0 0 0 0 0 0 0 0 0 0 0 0 0 0 0 0 0 0 0 0 0 0 0 0 0 0 0 0 0 0 0 0 0 0
0 0 0 0 0 0 0 0 0 0 0 0 0 0 0 0 0 0 0 0 0 0 0 0 0 0 0 0 0 0 0 0 0 0 0 0 0 0 0 0 0 0 0
0 0 0 0 0 0 0 0 0 0 0 0 0 0 0 0 0 0 0 0 0 0 0 0 0 0 0 0 0 0 0 0 0 0 0 0 0 0 0 0 0 0 0
0 0 0 0 0 0 0 0 0 0 0 0 0 0 0 0 0 0 0 0 0 0 0 0 0 0 0 0 0 0 0 0 0 0 0 0 0 0 0 0 0 0 0
0 0 0 0 0 0 0 0 0 0 0 0 0 0 0 0 0 0 0 0 0 0 0 0 0 0 0 0 0 0 0 0 0 0 0 0 0 0 0 0 0 0 0
0 0 0 0 0 0 0 0 0 0 0 0 0 0 0 0 0 0 0 0 0 0 0 0 0 0 0 0 0 0 0 0 0 0 0 0 0 0 0 0 0 0 0
Height
5725 5726 5727 5728 5730 5730 5731 5731 5732 5732 5732 5732 5732 5732 5731 5731 5730 5730 5729 5729 5728 5727 5726 5725 5723 5722 5720 5718 5716 5714 5712 5710 5708 5705 5703 5700 5698 5696 5694 5692 5690 5688 5686
5714 5715 5716 5717 5718 5719 5719 5719 5720 5720 5720 5720 5720 5719 5719 5718 5718 5717 5717 5716 5715 5715 5714 5712 5711 5710 5708 5706 5705 5703 5700 5698 5697 5695 5692 5690 5689 5687 5685 5683 5681 5680 5678
5703 5704 5705 5706 5707 5707 5707 5708 5708 5708 5708 5707 5707 5707 5706 5706 5705 5705 5704 5704 5703 5702 5701 5700 5699 5697 5696 5694 5692 5691 5689 5687 5685 5684 5682 5681 5679 5678 5676 5675 5673 5672 5670
5693 5694 5694 5695 5695 5696 5696 5696 5696 5696 5696 5695 5695 5695 5694 5694 5693 5693 5692 5691 5690 5689 5689 5687 5686 5685 5684 5682 5681 5679 5678 5676 5675 5673 5672 5671 5670 5668 5667 5666 5665 5664 5663
5683 5683 5684 5684 5685 5685 5685 5685 5685 5685 5684 5684 5684 5683 5683 5682 5682 5681 5680 5679 5678 5677 5676 5675 5674 5672 5671 5670 5669 5668 5667 5666 5664 5663 5662 5661 5660 5660 5659 5658 5657 5656 5655
5672 5673 5673 5673 5673 5674 5674 5674 5674 5673 5673 5673 5673 5672 5671 5671 5670 5669 5668 5667 5666 5665 5664 5663 5662 5661 5660 5659 5658 5657 5656 5655 5654 5654 5653 5652 5652 5651 5650 5649 5649 5648 5646
5661 5661 5662 5662 5662 5662 5663 5663 5663 5663 5663 5662 5662 5661 5660 5659 5658 5657 5656 5655 5654 5653 5652 5651 5650 5649 5649 5648 5647 5647 5646 5645 5645 5645 5644 5644 5643 5642 5642 5641 5640 5639 5638
5650 5650 5650 5651 5651 5651 5651 5651 5652 5652 5651 5651 5650 5650 5649 5648 5647 5645 5644 5643 5642 5641 5640 5640 5639 5638 5638 5637 5637 5637 5637 5636 5636 5636 5635 5635 5634 5634 5633 5632 5631 5630 5629
5638 5639 5639 5639 5640 5640 5640 5640 5641 5641 5640 5640 5639 5638 5638 5637 5635 5634 5633 5632 5631 5630 5629 5629 5628 5628 5628 5627 5627 5627 5627 5627 5627 5627 5627 5626 5625 5625 5624 5623 5622 5621 5619
5626 5627 5628 5628 5629 5629 5629 5629 5630 5629 5629 5629 5628 5627 5627 5626 5625 5624 5622 5622 5621 5620 5619 5619 5619 5618 5618 5618 5618 5618 5618 5618 5618 5618 5618 5617 5617 5616 5615 5614 5612 5611 5609
5615 5616 5616 5617 5617 5618 5618 5618 5618 5618 5618 5618 5618 5617 5616 5615 5615 5614 5613 5612 5611 5611 5610 5610 5609 5609 5609 5609 5609 5609 5609 5610 5610 5609 5609 5609 5608 5607 5605 5604 5603 5601 5599
5603 5604 5605 5605 5606 5606 5607 5607 5607 5608 5608 5607 5607 5607 5606 5606 5605 5604 5603 5603 5602 5602 5601 5601 5601 5601 5601 5601 5601 5601 5601 5601 5601 5601 5600 5599 5598 5597 5596 5594 5592 5590 5589
5591 5592 5593 5594 5594 5595 5596 5596 5597 5597 5597 5597 5597 5597 5597 5596 5596 5595 5595 5594 5593 5593 5593 5593 5593 5593 5593 5593 5593 5593 5593 5592 5592 5592 5591 5590 5589 5587 5586 5584 5582 5580 5578
5579 5580 5581 5582 5583 5584 5584 5585 5586 5586 5587 5587 5587 5588 5587 5587 5587 5587 5586 5586 5585 5585 5585 5585 5585 5585 5585 5585 5585 5585 5584 5584 5583 5583 5581 5580 5579 5577 5575 5573 5571 5569 5567
5567 5568 5569 5570 5571 5572 5573 5574 5575 5576 5577 5577 5578 5578 5578 5578 5578 5578 5578 5578 5577 5577 5577 5577 5577 5577 5577 5577 5577 5576 5576 5575 5574 5573 5572 5570 5568 5567 5565 5563 5560 5558 5555
5554 5556 5557 5558 5560 5561 5562 5563 5564 5565 5566 5567 5568 5568 5569 5569 5570 5570 5570 5570 5570 5570 5570 5570 5569 5569 5569 5569 5568 5568 5567 5566 5565 5563 5562 5560 5558 5556 5554 5551 5549 5546 5543
5542 5543 5545 5546 5548 5549 5551 5552 5554 5555 5556 5557 5558 5558 5559 5560 5561 5561 5561 5562 5562 5562 5562 5562 5562 5561 5561 5560 5559 5559 5558 5556 5555 5553 5552 5550 5548 5545 5543 5540 5537 5535 5532
5529 5531 5533 5534 5536 5538 5540 5541 5543 5544 5546 5547 5548 5549 5550 5551 5551 5552 5553 5553 5553 5553 5553 5553 5553 5552 5552 5551 5550 5549 5548 5546 5545 5543 5541 5539 5536 5534 5531 5529 5526 5523 5520
5516 5518 5520 5522 5524 5526 5528 5530 5532 5534 5535 5537 5538 5539 5540 5541 5542 5543 5544 5544 5545 5545 5544 5544 5544 5543 5542 5541 5540 5539 5538 5536 5534 5532 5530 5528 5525 5522 5520 5517 5514 5511 5508
5501 5504 5506 5509 5512 5514 5516 5519 5521 5523 5525 5526 5528 5529 5530 5531 5533 5534 5535 5535 5535 5535 5535 5535 5534 5533 5533 5532 5530 5529 5527 5525 5523 5521 5519 5516 5514 5511 5508 5505 5502 5499 5495
5487 5490 5493 5496 5499 5501 5504 5506 5509 5511 5514 5516 5517 5519 5520 5522 5523 5524 5525 5525 5526 5526 5525 5525 5524 5523 5522 5521 5520 5518 5517 5515 5513 5510 5508 5505 5502 5500 5496 5493 5490 5487 5483
5473 5476 5479 5482 5485 5488 5491 5494 5497 5500 5502 5504 5506 5508 5509 5511 5513 5514 5515 5515 5515 5515 5515 5514 5514 5513 5512 5511 5510 5508 5506 5504 5502 5499 5497 5494 5491 5488 5485 5481 5478 5475 5471
5458 5462 5465 5468 5471 5474 5477 5481 5484 5488 5490 5493 5495 5497 5499 5500 5502 5503 5504 5504 5505 5505 5504 5504 5503 5502 5501 5500 5499 5498 5496 5494 5491 5489 5486 5483 5480 5477 5473 5470 5466 5463 5459
5444 5448 5451 5454 5457 5460 5464 5468 5471 5475 5478 5481 5483 5486 5488 5489 5491 5492 5493 5493 5494 5494 5493 5493 5492 5492 5491 5490 5488 5487 5485 5483 5481 5478 5475 5472 5469 5465 5462 5458 5454 5450 5446
5429 5433 5437 5440 5443 5447 5451 5455 5459 5463 5466 5469 5472 5474 5477 5478 5480 5481 5482 5482 5483 5483 5482 5482 5482 5481 5480 5479 5478 5476 5475 5472 5470 5467 5464 5461 5458 5454 5450 5446 5442 5438 5433
5414 5419 5423 5427 5431 5434 5438 5443 5447 5450 5454 5457 5460 5463 5465 5467 5469 5470 5471 5472 5472 5472 5472 5471 5471 5471 5470 5469 5468 5466 5464 5462 5459 5457 5453 5450 5446 5442 5438 5434 5430 5425 5421
Wind_Speed
43 45 46 48 49 49 50 51 51 51 51 51 52 52 51 51 51 51 51 50 49 49 48 47 47 46 46 45 45 45 44 44 43 42 42 40 38 36 35 33 32 31 29
44 45 45 46 48 49 49 50 50 51 52 52 52 52 52 52 51 51 50 50 50 49 48 48 47 47 46 46 45 45 44 43 42 41 40 38 36 35 34 32 31 30 29
43 44 45 46 47 47 48 49 49 50 51 52 51 50 50 49 49 49 48 48 48 48 47 47 47 46 46 45 45 44 43 42 41 39 38 36 35 34 33 31 30 29 28
39 41 42 43 45 47 48 48 48 48 47 47 47 47 47 46 45 45 45 46 46 47 46 46 46 46 45 44 43 43 42 40 39 37 36 34 33 32 31 30 29 28 27
39 40 41 42 43 43 44 44 44 44 43 43 43 43 43 44 44 44 45 45 45 45 46 45 45 44 43 42 41 40 39 38 37 35 33 32 31 30 30 29 28 28 28
39 40 40 41 42 43 43 43 43 42 42 42 42 42 42 42 43 43 43 43 43 44 44 43 43 42 41 40 39 38 37 35 34 32 31 31 30 29 29 29 29 29 29
39 40 40 41 41 42 42 42 42 42 42 42 42 42 42 42 42 42 43 43 42 42 42 42 41 40 39 38 37 36 34 32 31 30 30 29 29 29 29 29 29 30 30
40 40 40 40 41 41 41 41 41 41 41 41 42 42 42 42 42 42 42 41 41 41 40 39 39 38 37 36 34 33 32 31 30 29 28 28 29 29 30 30 30 30 31
40 40 40 40 41 41 41 41 41 41 41 41 41 41 40 40 40 40 39 38 38 38 37 36 35 34 34 34 33 32 31 30 29 28 28 28 29 29 30 30 30 31 31
40 41 41 40 40 40 40 40 40 40 39 39 39 39 38 38 37 36 36 35 35 34 34 34 33 32 32 32 31 30 29 29 29 29 29 29 29 30 30 31 31 31 32
40 40 40 40 40 40 39 39 39 38 38 38 37 36 36 35 34 34 33 33 32 32 32 31 31 31 31 31 30 30 29 29 29 29 30 30 31 31 32 32 32 32 32
40 39 40 40 39 39 39 38 38 37 37 36 35 35 34 34 33 32 31 31 30 30 30 30 29 30 30 30 29 29 29 29 29 30 31 31 32 32 32 32 33 32 33
39 39 39 39 39 39 38 38 37 36 35 34 34 33 32 31 30 29 29 29 28 28 28 28 28 28 28 28 28 28 28 29 30 30 31 32 33 33 33 33 33 34 34
39 39 39 39 38 38 38 37 37 36 35 34 33 32 31 30 29 28 27 27 26 26 26 26 26 27 27 27 27 28 28 29 30 31 32 33 33 34 34 34 35 35 36
38 38 38 38 38 38 37 37 36 35 34 33 32 31 30 28 27 26 26 25 25 24 23 24 24 25 25 26 26 27 28 29 30 31 32 33 33 34 35 35 36 37 38
36 37 37 37 37 37 36 36 35 34 33 33 32 31 30 29 27 26 25 24 24 23 23 23 24 24 25 26 27 28 29 30 31 32 33 33 34 35 36 37 37 38 38
36 37 37 36 36 35 35 34 34 33 32 32 31 30 29 29 28 27 26 25 25 24 25 25 26 26 27 28 29 29 30 31 32 33 34 35 36 37 37 38 38 39 39
38 37 37 37 36 36 35 34 33 33 32 32 31 30 30 29 28 27 27 26 26 26 27 27 27 28 28 29 30 31 32 33 33 34 35 36 37 38 38 38 39 39 40
39 39 38 37 37 36 36 36 35 34 33 32 32 31 30 29 29 28 27 27 27 28 28 29 29 29 30 30 31 32 33 33 34 35 36 37 37 38 38 39 40 40 41
40 40 39 39 38 37 37 37 36 35 33 32 32 32 31 30 30 29 29 29 29 29 29 30 31 31 32 32 32 33 33 34 35 35 36 37 37 38 38 39 40 40 40
39 40 40 40 39 39 38 38 37 36 35 34 33 33 33 32 31 30 30 30 30 31 31 32 32 32 32 32 33 33 34 34 34 35 35 36 36 37 38 39 39 40 40
39 39 40 41 40 39 39 39 38 37 36 36 35 35 34 34 33 32 32 32 32 33 33 33 33 33 33 33 33 33 33 33 34 34 35 36 37 37 38 39 39 40 41
40 39 40 40 40 40 40 39 39 39 37 36 36 35 35 34 34 34 34 33 33 33 34 34 33 33 33 33 33 33 33 34 34 35 35 36 37 38 39 39 40 40 41
41 40 40 39 39 40 40 40 39 39 39 37 36 36 35 35 34 34 34 34 34 34 34 34 33 33 33 33 33 33 33 34 34 35 35 36 37 38 39 40 40 41 41
41 40 40 39 38 38 39 40 39 39 38 38 37 36 35 35 34 33 33 32 32 33 33 33 33 33 33 33 33 33 33 33 34 35 35 36 37 38 39 40 41 41 42
41 40 40 39 38 38 38 39 39 38 37 37 37 36 35 34 34 33 32 31 32 32 32 32 31 31 31 31 31 32 32 33 34 35 35 37 38 39 40 41 42 42 43
Wind_Direction
253 254 255 257 259 262 263 264 266 268 270 271 273 274 274 274 275 275 276 277 277 277 277 278 279 280 281 282 282 283 283 284 284 286 287 286 285 285 285 285 284 285 285
253 254 255 257 259 261 263 264 266 269 269 270 273 273 274 275 275 275 275 275 276 276 277 277 278 278 279 280 281 281 282 282 283 283 284 282 282 283 282 282 282 282 282
254 255 256 258 259 261 263 264 266 268 269 270 272 273 274 274 274 273 273 274 275 275 276 276 277 278 278 279 279 279 280 280 280 281 280 280 279 279 279 280 280 280 280
255 256 257 259 260 261 262 264 266 268 269 270 270 271 272 273 273 273 273 274 274 274 275 276 276 277 277 277 278 278 278 278 278 278 277 277 277 277 278 278 278 277 278
255 256 257 258 260 261 262 264 265 266 268 269 271 271 272 273 274 274 274 275 275 275 276 276 275 276 276 276 276 276 276 275 275 275 274 274 275 275 276 276 276 277 278
256 257 257 258 259 261 262 263 264 266 267 269 270 271 272 273 274 275 276 276 276 276 276 275 275 275 275 275 274 273 273 273 272 272 272 272 274 274 274 275 276 278 279
257 257 258 259 260 261 262 263 265 266 268 269 271 272 273 274 275 275 276 275 275 276 276 275 274 273 272 271 271 270 270 270 270 270 270 272 273 274 275 277 278 280 281
257 258 259 260 261 262 263 264 266 268 269 270 272 273 273 274 275 276 276 276 275 275 274 273 272 271 270 269 268 268 267 267 267 268 270 272 274 275 277 278 280 281 282
258 258 259 260 261 262 263 265 266 268 269 270 272 273 274 275 276 276 276 276 275 274 273 271 269 268 267 266 266 265 266 266 266 268 270 272 275 277 279 280 281 283 284
258 259 259 260 261 262 263 264 265 267 268 270 271 273 274 275 275 275 275 275 274 272 271 269 268 266 265 264 264 264 264 264 266 267 270 273 276 278 280 282 283 284 284
259 259 260 260 261 262 263 263 265 266 268 269 271 272 273 273 273 273 273 273 272 271 270 268 266 265 265 265 264 265 265 265 266 268 271 274 277 279 281 282 284 285 285
259 259 259 259 260 261 261 263 264 265 267 268 269 270 270 271 271 272 272 271 270 270 269 267 267 267 266 265 265 266 266 268 269 271 274 277 279 281 283 284 286 286 286
258 258 258 258 259 259 260 262 263 264 266 266 267 269 269 269 270 269 270 269 269 269 269 267 267 267 267 266 267 268 270 271 273 275 278 280 282 283 285 286 286 287 287
257 257 257 258 258 259 260 262 262 263 263 264 265 266 267 267 267 267 267 268 268 269 269 268 268 269 269 269 270 271 272 274 276 279 281 282 283 285 286 286 286 287 288
256 256 256 257 258 259 260 261 261 260 261 262 262 264 263 263 264 265 266 267 268 268 269 270 270 270 271 272 274 275 277 278 280 281 282 283 284 285 286 287 287 288 288
256 255 255 255 256 257 258 258 258 258 258 259 261 261 260 259 260 262 264 266 266 267 269 270 271 272 273 274 275 277 279 280 282 282 283 284 285 286 287 287 288 288 288
255 254 254 254 254 254 255 255 256 255 255 257 259 259 257 257 259 260 262 263 265 266 268 270 271 273 274 276 277 279 281 282 283 284 284 285 286 287 287 288 288 288 287
254 254 253 252 252 252 252 253 253 254 255 256 257 256 255 256 258 260 262 264 265 267 269 271 273 274 276 278 279 281 282 283 284 285 286 287 287 288 288 288 288 288 288
253 253 252 252 251 251 251 251 252 253 254 254 254 254 254 255 257 260 263 264 265 267 269 271 274 276 278 279 281 282 283 284 285 286 287 288 288 289 289 289 290 289 290
251 250 250 250 250 251 251 250 250 251 251 253 253 253 253 255 257 260 263 264 266 268 270 272 275 277 279 280 282 283 284 286 287 288 288 289 289 289 290 290 291 291 291
250 249 248 249 249 250 250 249 250 250 250 251 252 252 253 255 258 260 262 264 267 270 272 274 276 278 279 281 282 283 285 287 288 289 290 290 291 291 291 292 292 292 292
249 249 248 248 249 249 249 248 249 249 248 249 250 252 254 256 258 260 262 265 267 270 272 274 275 277 279 280 282 284 286 287 288 289 290 291 291 292 292 293 293 293 293
249 249 249 248 248 248 246 246 246 247 248 249 251 253 255 256 258 261 263 265 267 270 272 273 274 276 278 280 281 283 285 287 289 291 292 292 292 293 294 294 294 294 294
248 248 248 248 248 246 244 244 245 246 247 249 251 253 254 256 258 260 262 265 268 270 271 272 273 275 277 279 281 283 285 287 289 291 292 293 294 294 295 295 295 295 295
246 247 247 247 246 246 244 243 244 245 247 248 250 252 253 255 257 259 262 265 267 269 271 272 272 274 277 279 281 282 285 287 290 291 293 293 294 295 296 296 296 296 297
244 245 245 245 245 245 245 244 244 245 246 247 248 250 252 254 256 259 261 265 267 269 270 270 271 274 277 279 281 282 285 288 291 292 293 294 295 296 297 297 297 297 297